AirNav   Air Wisconsin pilot careers
 
 1585 users online  

P91 Flying M Aerodrome
Germansville, Pennsylvania, USA

GOING TO GERMANSVILLE?


FAA INFORMATION EFFECTIVE 19 JULY 2018

Location

FAA Identifier: P91
Lat/Long: 40-44-15.1100N / 075-42-19.5000W
40-44.251833N / 075-42.325000W
40.7375306 / -75.7054167
(estimated)
Elevation: 735 ft. / 224 m (estimated)
Variation: 11W (1985)
From city: 2 miles N of GERMANSVILLE, PA
Time zone: UTC -4 (UTC -5 during Standard Time)
Zip code: 18053

Airport Operations

Airport use: Open to the public
Activation date: 01/1974
Control tower: no
ARTCC: NEW YORK CENTER
FSS: WILLIAMSPORT FLIGHT SERVICE STATION
NOTAMs facility: IPT (NOTAM-D service available)
Attendance: IREG
Wind indicator: yes
Segmented circle: no

Airport Communications

CTAF/UNICOM: 122.725
WX AWOS-3PT at 22N (5 nm NW): 119.350 (570-386-3423)
WX ASOS at ABE (13 nm SE): PHONE 610-266-3579
WX AWOS-3 at XLL (14 nm SE): 127.875 (610-231-3111)
WX AWOS-3 at HZL (20 nm NW): 119.975 (570-459-4901)

Nearby radio navigation aids

VOR radial/distance  VOR name  Freq  Var
ETXr003/9.4EAST TEXAS VOR/DME110.2009W
FJCr283/11.4ALLENTOWN VORTAC117.5010W
PTWr357/31.6POTTSTOWN VORTAC116.5009W
LVZr191/32.1WILKES-BARRE VORTAC111.6010W

Airport Services

Parking: hangars and tiedowns
Airframe service: MINOR
Powerplant service: MINOR

Runway Information

Runway 8/26

Dimensions: 2380 x 100 ft. / 725 x 30 m
Surface: turf, in good condition
Runway edge markings: RY 08 /26 MKD WITH WHITE CONES.
RUNWAY 8  RUNWAY 26
Latitude: 40-44.186667N40-44.317000N
Longitude: 075-42.568000W075-42.082000W
Elevation: 726.0 ft.735.0 ft.
Gradient: 0.4% UP
Traffic pattern: leftleft
Displaced threshold: no300 ft.
DSPLCD THR MARKED WITH CONES & THREE LIGHTS EACH SIDE.
Touchdown point: yes, no lightsyes, no lights
Obstructions: none15 ft. road, 5 ft. from runway, 100 ft. left and right of centerline
RY 26 APCH SLOPE 20:1 TO DSPLCD THLD.

Airport Ownership and Management from official FAA records

Ownership: Privately-owned
Owner: LEHIGH LAND LEASING LTD
5363 MOUNTAIN RD, PO BOX 65
GERMANSVILLE, PA 18053
Phone 610-767-4133
Manager: PETER MANISCALCO
5363 MOUNTAIN RD, PO BOX 65
GERMANSVILLE, PA 18053-0065
Phone 610-248-8190

Airport Operational Statistics

Aircraft based on the field: 23
Single engine airplanes: 19
Multi engine airplanes: 1
Gliders airplanes: 2
Ultralights: 1
    
Aircraft operations: avg 24/day *
72% local general aviation
28% transient general aviation
<1% military
* for 12-month period ending 15 June 2017

Additional Remarks

FOR CD CTC ABE APCH AT 800-728-6322.

Instrument Procedures

There are no published instrument procedures at P91.

Some nearby airports with instrument procedures:

22N - Jake Arner Memorial Airport (5 nm NW)
KABE - Lehigh Valley International Airport (13 nm SE)
KXLL - Allentown Queen City Municipal Airport (14 nm SE)
KHZL - Hazleton Regional Airport (20 nm NW)
N43 - Braden Airpark (21 nm E)
 
Loc | Ops | Rwys | IFR | FBO | Links
Com | Nav | Svcs | Stats | Notes


 
Area around P91 (Flying M Aerodrome)
 
Road maps at: MapQuest Bing Google
 
Aerial photo
No photo
 
Sectional chart

 
Airport distance calculator
Flying to Flying M Aerodrome? Find the distance to fly.

From to P91

Sunrise and sunset
Times for 15-Aug-2018
 Local
(UTC-4)
 Zulu
(UTC)
Morning civil twilight05:4509:45
Sunrise06:1410:14
Sunset20:0100:01
Evening civil twilight20:3000:30

Current date and time
Zulu (UTC)  15-Aug-2018 19:43:44
Local (UTC-4)  15-Aug-2018 15:43:44
 
METAR
K22N 
5nm NW 
151915Z AUTO 28003KT 10SM SCT050 30/17 A2997 RMK AO2
KABE 
13nm SE 
151851Z 29005KT 9SM FEW050 31/19 A2996 RMK AO2 SLP141 T03110189
KXLL 
14nm SE 
151915Z AUTO 28007KT 10SM SCT050 30/18 A2997 RMK AO2
KHZL 
20nm NW 
151915Z AUTO 10SM CLR 30/18 A3006 RMK AO2
TAF
KABE 
13nm SE 
151735Z 1518/1618 28008KT P6SM FEW040 FM152300 26005KT P6SM SCT060 TEMPO 1608/1612 5SM BR FM161200 VRB02KT P6SM FEW250
NOTAMs
Click for the latest NOTAMs
NOTAMs are issued by the DoD/FAA and will open in a separate window not controlled by AirNav.

 

 
 

Would you like to see your business listed on this page?

 If your business provides an interesting product or service to pilots, flight crews, aircraft, or users of the Flying M Aerodrome, you should consider listing it here.  To start the listing process, click on the button below
 
Add a business
 

Other Pages about Flying M Aerodrome

Update a link
 
Copyright © AirNav, LLC. All rights reserved. Privacy Policy  Contact